TimeCDT,TemperatureF,Dew PointF,Humidity,Sea Level PressureIn,VisibilityMPH,Wind Direction,Wind SpeedMPH,Gust SpeedMPH,PrecipitationIn,Events,Conditions,WindDirDegrees,DateUTC
12:15 AM,64.8,56.8,75,29.95,10.0,Calm,Calm,-,N/A,,Overcast,0,2013-04-09 05:15:00
12:35 AM,63.9,57.9,81,29.95,10.0,ESE,3.5,-,N/A,,Overcast,110,2013-04-09 05:35:00
12:55 AM,63.5,57.2,80,29.95,10.0,ESE,6.9,-,N/A,,Scattered Clouds,110,2013-04-09 05:55:00
1:15 AM,61.9,55.8,80,29.95,10.0,Calm,Calm,-,N/A,,Clear,0,2013-04-09 06:15:00
1:35 AM,62.8,56.1,79,29.94,10.0,ESE,4.6,-,N/A,,Mostly Cloudy,110,2013-04-09 06:35:00
1:55 AM,62.2,55.4,78,29.94,10.0,Calm,Calm,-,N/A,,Mostly Cloudy,0,2013-04-09 06:55:00
2:15 AM,62.8,55.8,78,29.93,10.0,ESE,3.5,-,N/A,,Scattered Clouds,120,2013-04-09 07:15:00
2:35 AM,62.1,56.3,81,29.93,10.0,ESE,5.8,-,N/A,,Mostly Cloudy,110,2013-04-09 07:35:00
2:55 AM,61.7,56.7,84,29.92,10.0,ESE,4.6,-,N/A,,Overcast,110,2013-04-09 07:55:00
3:15 AM,62.4,57.0,82,29.92,10.0,SE,6.9,-,N/A,,Overcast,130,2013-04-09 08:15:00
3:35 AM,63.1,56.5,79,29.92,10.0,SE,8.1,-,N/A,,Overcast,130,2013-04-09 08:35:00
3:55 AM,62.8,56.3,79,29.92,10.0,SE,6.9,-,N/A,,Overcast,130,2013-04-09 08:55:00
4:15 AM,63.5,56.3,77,29.92,10.0,SE,10.4,-,N/A,,Overcast,130,2013-04-09 09:15:00
4:35 AM,62.8,56.5,80,29.93,10.0,SE,6.9,-,N/A,,Overcast,140,2013-04-09 09:35:00
4:55 AM,62.8,56.3,79,29.93,10.0,SSE,6.9,-,N/A,,Overcast,160,2013-04-09 09:55:00
5:15 AM,63.0,56.1,78,29.93,10.0,SE,9.2,-,N/A,,Overcast,140,2013-04-09 10:15:00
5:35 AM,63.3,55.2,75,29.94,10.0,SE,10.4,-,N/A,,Mostly Cloudy,140,2013-04-09 10:35:00
5:55 AM,63.0,55.4,76,29.94,10.0,SSE,9.2,-,N/A,,Overcast,150,2013-04-09 10:55:00
6:15 AM,61.9,55.0,78,29.95,10.0,SSE,9.2,-,N/A,,Mostly Cloudy,150,2013-04-09 11:15:00
6:35 AM,60.8,54.9,81,29.96,10.0,SE,6.9,-,N/A,,Clear,140,2013-04-09 11:35:00
6:55 AM,59.9,54.9,83,29.97,10.0,SSE,6.9,-,N/A,,Clear,150,2013-04-09 11:55:00
7:15 AM,61.0,55.4,82,29.97,10.0,SSE,6.9,-,N/A,,Clear,150,2013-04-09 12:15:00
7:35 AM,62.8,56.3,79,29.98,10.0,SSE,10.4,-,N/A,,Scattered Clouds,160,2013-04-09 12:35:00
7:55 AM,64.8,57.4,77,29.99,10.0,SSE,10.4,-,N/A,,Scattered Clouds,160,2013-04-09 12:55:00
8:15 AM,66.2,58.3,76,29.99,10.0,SSE,10.4,-,N/A,,Scattered Clouds,160,2013-04-09 13:15:00
8:35 AM,68.0,59.0,73,29.99,10.0,South,15.0,-,N/A,,Clear,180,2013-04-09 13:35:00
8:55 AM,70.5,60.1,69,29.98,10.0,South,17.3,-,N/A,,Clear,180,2013-04-09 13:55:00
9:15 AM,69.1,59.9,72,29.99,10.0,South,16.1,-,N/A,,Clear,170,2013-04-09 14:15:00
9:35 AM,71.1,60.8,70,29.99,10.0,South,16.1,-,N/A,,Scattered Clouds,180,2013-04-09 14:35:00
9:55 AM,71.6,61.3,70,30.00,10.0,South,19.6,-,N/A,,Scattered Clouds,190,2013-04-09 14:55:00
10:15 AM,72.7,61.3,67,30.00,10.0,South,19.6,-,N/A,,Scattered Clouds,180,2013-04-09 15:15:00
10:35 AM,72.3,61.2,68,30.00,10.0,South,16.1,24.2,N/A,,Mostly Cloudy,180,2013-04-09 15:35:00
10:55 AM,73.4,61.9,67,30.00,10.0,South,18.4,24.2,N/A,,Scattered Clouds,190,2013-04-09 15:55:00
11:15 AM,74.1,61.0,63,30.00,10.0,South,17.3,-,N/A,,Mostly Cloudy,180,2013-04-09 16:15:00
11:35 AM,74.8,61.5,63,29.99,10.0,South,19.6,29.9,N/A,,Scattered Clouds,190,2013-04-09 16:35:00
11:55 AM,75.4,61.3,62,29.98,10.0,South,23.0,26.5,N/A,,Scattered Clouds,190,2013-04-09 16:55:00
12:15 PM,75.9,62.4,63,29.97,10.0,South,19.6,-,N/A,,Scattered Clouds,180,2013-04-09 17:15:00
12:35 PM,76.1,61.7,61,29.97,10.0,South,20.7,26.5,N/A,,Scattered Clouds,180,2013-04-09 17:35:00
12:55 PM,77.9,62.4,59,29.96,10.0,South,17.3,26.5,N/A,,Scattered Clouds,180,2013-04-09 17:55:00
1:15 PM,78.6,61.3,55,29.95,10.0,South,24.2,-,N/A,,Scattered Clouds,190,2013-04-09 18:15:00
1:35 PM,78.8,61.5,55,29.94,10.0,South,19.6,26.5,N/A,,Scattered Clouds,180,2013-04-09 18:35:00
1:55 PM,79.5,61.7,54,29.94,10.0,South,21.9,29.9,N/A,,Scattered Clouds,190,2013-04-09 18:55:00
2:15 PM,79.9,61.0,52,29.93,10.0,South,20.7,28.8,N/A,,Scattered Clouds,190,2013-04-09 19:15:00
2:35 PM,80.1,61.9,54,29.92,10.0,South,17.3,23.0,N/A,,Scattered Clouds,190,2013-04-09 19:35:00
2:55 PM,80.6,61.9,53,29.92,10.0,South,15.0,21.9,N/A,,Scattered Clouds,180,2013-04-09 19:55:00
3:15 PM,79.2,61.9,55,29.91,10.0,South,16.1,21.9,N/A,,Scattered Clouds,180,2013-04-09 20:15:00
3:35 PM,81.3,60.6,49,29.90,10.0,SSW,18.4,26.5,N/A,,Scattered Clouds,200,2013-04-09 20:35:00
3:55 PM,80.2,61.5,53,29.91,10.0,South,24.2,29.9,N/A,,Scattered Clouds,190,2013-04-09 20:55:00
4:15 PM,81.0,62.4,53,29.90,10.0,South,20.7,26.5,N/A,,Scattered Clouds,170,2013-04-09 21:15:00
4:35 PM,80.8,62.4,53,29.89,10.0,South,19.6,-,N/A,,Clear,170,2013-04-09 21:35:00
4:55 PM,79.5,62.4,56,29.89,10.0,South,20.7,-,N/A,,Clear,180,2013-04-09 21:55:00
5:15 PM,79.3,63.3,58,29.89,10.0,South,12.7,21.9,N/A,,Scattered Clouds,180,2013-04-09 22:15:00
5:35 PM,79.9,62.8,56,29.90,10.0,South,19.6,27.6,N/A,,Scattered Clouds,180,2013-04-09 22:35:00
5:55 PM,78.8,61.5,55,29.89,10.0,South,18.4,26.5,N/A,,Clear,180,2013-04-09 22:55:00
6:15 PM,77.0,61.0,58,29.91,10.0,South,17.3,-,N/A,,Clear,180,2013-04-09 23:15:00
6:35 PM,77.0,61.3,58,29.90,10.0,South,13.8,-,N/A,,Clear,190,2013-04-09 23:35:00
6:55 PM,76.5,61.3,59,29.90,10.0,South,13.8,-,N/A,,Scattered Clouds,190,2013-04-09 23:55:00
7:15 PM,76.1,61.2,60,29.91,10.0,South,12.7,-,N/A,,Scattered Clouds,180,2013-04-10 00:15:00
7:35 PM,73.9,61.2,64,29.91,10.0,SSE,10.4,-,N/A,,Scattered Clouds,160,2013-04-10 00:35:00
7:55 PM,72.7,61.2,67,29.91,10.0,SSE,12.7,-,N/A,,Clear,160,2013-04-10 00:55:00
8:15 PM,72.7,61.3,67,29.91,10.0,SSE,13.8,-,N/A,,Clear,160,2013-04-10 01:15:00
8:35 PM,72.3,61.3,68,29.91,10.0,SSE,12.7,-,N/A,,Clear,160,2013-04-10 01:35:00
8:55 PM,71.2,61.7,72,29.91,10.0,SSE,10.4,-,N/A,,Clear,150,2013-04-10 01:55:00
9:15 PM,70.2,61.7,74,29.92,10.0,SSE,10.4,-,N/A,,Clear,150,2013-04-10 02:15:00
9:35 PM,70.2,61.7,74,29.92,10.0,SSE,10.4,-,N/A,,Clear,150,2013-04-10 02:35:00
9:55 PM,70.0,61.7,75,29.92,10.0,SSE,10.4,-,N/A,,Clear,160,2013-04-10 02:55:00
10:15 PM,70.3,61.7,74,29.92,10.0,SSE,9.2,-,N/A,,Clear,160,2013-04-10 03:15:00
10:35 PM,69.8,62.1,76,29.92,10.0,SSE,9.2,-,N/A,,Clear,150,2013-04-10 03:35:00
10:55 PM,68.9,62.1,79,29.92,10.0,SSE,10.4,-,N/A,,Clear,150,2013-04-10 03:55:00
11:15 PM,68.4,61.7,79,29.91,10.0,SSE,6.9,-,N/A,,Clear,150,2013-04-10 04:15:00
11:35 PM,68.0,61.7,80,29.90,10.0,SE,8.1,-,N/A,,Clear,140,2013-04-10 04:35:00
11:55 PM,66.9,61.7,83,29.89,10.0,SE,8.1,-,N/A,,Clear,140,2013-04-10 04:55:00